Location: Unspecified
(0.0000°N, 0.0000°E)
Time: 04:41:34
(UTC+00:00)

Vanguard 2 Rocket - All Passes

Search period start: 15 September 2024 00:00
Search period end: 25 September 2024 00:00
Orbit: 553 x 3300 km, 32.9° (Epoch: 14 September)

Date Brightness Start Highest point End Pass type
(mag) Time Alt. Az. Time Alt. Az. Time Alt. Az.
15 Sep - 00:26:11 10° NW 00:31:23 18° NNW 00:38:30 10° NNE visible
15 Sep - 02:45:43 10° NNW 02:51:12 13° N 02:57:38 10° NNE visible
15 Sep - 05:01:22 10° NNW 05:13:57 22° NNE 05:27:53 10° ENE visible
15 Sep - 07:16:19 10° NW 07:35:14 48° NNE 07:51:35 10° E daylight
15 Sep - 09:33:44 10° WNW 09:53:50 80° SW 10:07:18 10° SE daylight
15 Sep - 11:56:53 10° W 12:09:48 28° SW 12:18:33 10° SSE daylight
15 Sep - 21:08:26 10° SW 21:12:41 77° SE 21:19:04 10° ENE night (unlit)
15 Sep - 23:22:03 10° WNW 23:26:49 22° NNW 23:33:44 10° NNE night (unlit)
16 Sep - 01:41:11 10° NNW 01:44:51 12° N 01:49:05 10° NNE visible
16 Sep - 03:57:34 10° NNW 04:06:41 17° NNE 04:17:23 10° NE visible
16 Sep - 06:11:41 10° NNW 06:28:31 37° NNE 06:45:14 10° E daylight
16 Sep - 08:27:35 10° NW 08:48:07 79° NE 09:03:35 10° ESE daylight
16 Sep - 10:48:01 10° WNW 11:05:11 44° SW 11:16:29 10° SSE daylight
16 Sep - 13:19:14 10° SW 13:21:15 10° SSW 13:23:08 10° SSW daylight
16 Sep - 20:06:24 10° SSW 20:09:58 31° SE 20:14:26 10° E visible
16 Sep - 22:18:29 10° W 22:22:53 30° NNW 22:29:28 10° NNE night (unlit)
17 Sep - 00:36:14 10° NNW 00:39:17 12° N 00:42:50 10° N visible
17 Sep - 02:54:24 10° NNW 02:59:41 13° N 03:05:47 10° NNE visible
17 Sep - 05:07:38 10° NNW 05:21:38 28° NNE 05:37:15 10° ENE visible
17 Sep - 07:22:14 10° NW 07:41:54 61° NE 07:58:58 10° ESE daylight
17 Sep - 09:40:23 10° WNW 10:00:04 63° SW 10:13:41 10° SE daylight
17 Sep - 12:05:55 10° WSW 12:16:29 21° SW 12:24:15 10° S daylight
17 Sep - 19:05:16 10° S 19:07:08 13° SE 19:09:03 10° ESE visible
17 Sep - 21:15:23 10° WSW 21:19:30 52° NNW 21:25:29 10° NE night (unlit)
17 Sep - 23:31:15 10° NW 23:34:26 13° NNW 23:38:21 10° NNE night (unlit)
18 Sep - 04:04:11 10° NNW 04:14:44 20° NNE 04:27:20 10° ENE visible
18 Sep - 06:17:36 10° NW 06:35:22 47° NNE 06:53:12 10° E daylight
18 Sep - 08:33:51 10° WNW 08:54:24 83° SW 09:10:11 10° SE daylight
18 Sep - 10:55:55 10° W 11:11:33 33° SW 11:22:29 10° SSE daylight
18 Sep - 20:12:43 10° SW 20:16:37 70° SE 20:21:34 10° ENE visible
18 Sep - 22:26:46 10° WNW 22:30:12 17° NNW 22:34:41 10° NNE night (unlit)
19 Sep - 03:01:33 10° N 03:07:58 14° NNE 03:15:33 10° NE visible
19 Sep - 05:13:37 10° NNW 05:28:47 35° NNE 05:45:57 10° E visible
19 Sep - 07:28:16 10° NW 07:48:14 77° NE 08:05:52 10° ESE daylight
19 Sep - 09:47:29 10° WNW 10:06:16 49° SW 10:19:50 10° SE daylight
19 Sep - 12:15:56 10° WSW 12:23:33 15° SSW 12:29:39 10° S daylight
19 Sep - 19:10:27 10° SSW 19:13:53 27° SE 19:17:28 10° E visible
19 Sep - 21:22:54 10° W 21:26:31 26° NNW 21:31:19 10° NNE night (unlit)
20 Sep - 04:10:17 10° NNW 04:22:16 25° NNE 04:36:55 10° ENE visible
20 Sep - 06:23:31 10° NW 06:41:51 59° NE 07:00:33 10° ESE daylight
20 Sep - 08:40:25 10° WNW 09:00:32 67° SW 09:16:29 10° SE daylight
20 Sep - 11:04:33 10° W 11:18:12 25° SW 11:28:18 10° SSE daylight
20 Sep - 18:08:54 10° S 18:10:47 13° SSE 18:12:35 10° SE daylight
20 Sep - 20:19:34 10° WSW 20:23:21 50° NNW 20:28:03 10° NE visible
21 Sep - 03:07:44 10° N 03:15:52 17° NNE 03:25:52 10° ENE visible
21 Sep - 05:19:31 10° NNW 05:35:29 44° NE 05:53:58 10° E visible
21 Sep - 07:34:30 10° NW 07:54:24 86° SW 08:12:23 10° SE daylight
21 Sep - 09:55:09 10° W 10:12:37 38° SW 10:25:48 10° SSE daylight
21 Sep - 12:27:15 10° SW 12:31:02 11° SSW 12:34:24 10° S daylight
21 Sep - 19:16:35 10° SW 19:20:34 65° SE 19:24:41 10° ENE visible
21 Sep - 21:31:32 10° NW 21:33:41 13° NNW 21:36:09 10° N night (unlit)
22 Sep - 02:08:07 10° NNE 02:09:40 10° NNE 02:11:16 10° NNE visible
22 Sep - 04:16:10 10° NNW 04:29:16 32° NNE 04:45:47 10° E visible
22 Sep - 06:29:34 10° NW 06:48:04 74° NE 07:07:23 10° ESE daylight
22 Sep - 08:47:23 10° WNW 09:06:42 53° SW 09:22:32 10° SE daylight
22 Sep - 11:13:58 10° WSW 11:25:14 19° SSW 11:34:02 10° SSE daylight
22 Sep - 18:13:52 10° SSW 18:17:41 27° SSE 18:21:03 10° E visible
22 Sep - 20:27:02 10° W 20:30:12 22° NNW 20:33:51 10° NNE visible
23 Sep - 03:13:34 10° NNW 03:23:15 21° NNE 03:35:45 10° ENE visible
23 Sep - 05:25:26 10° NW 05:41:48 57° NE 06:01:18 10° ESE visible
23 Sep - 07:41:01 10° WNW 08:00:29 70° SW 08:18:35 10° SE daylight
23 Sep - 10:03:29 10° W 10:19:15 29° SSW 10:31:38 10° SSE daylight
23 Sep - 17:11:25 10° S 17:14:20 15° SSE 17:16:49 10° ESE daylight
23 Sep - 19:23:16 10° WSW 19:27:13 51° NW 19:31:13 10° NE visible
24 Sep - 02:12:22 10° N 02:17:25 13° NNE 02:23:25 10° NE visible
24 Sep - 04:22:00 10° NNW 04:35:47 41° NE 04:53:53 10° E visible
24 Sep - 06:35:46 10° NW 06:54:07 89° SW 07:13:49 10° SE daylight
24 Sep - 08:54:52 10° W 09:13:03 41° SW 09:28:26 10° SSE daylight
24 Sep - 11:24:05 10° SW 11:32:42 15° SSW 11:39:48 10° S daylight
24 Sep - 18:19:50 10° SW 18:24:26 62° SE 18:28:17 10° ENE visible
24 Sep - 20:36:16 10° NW 20:37:08 11° NNW 20:38:00 10° NNW visible
